[[{"header":{"parameterUnit":"m.s-1","parameterCategory":1,"la1":30.2991,"la2":30.254,"lo1":-89.0895,"lo2":-89.0444,"dy":0.0017,"dx":0.0017,"nx":28,"ny":28,"refTime":"2023-11-17T03:00:00:Z","depth":0,"parameterNumber":2,"parameterNumberName":"U-component_of_WINDS"},"data":[0,0,0,0,0,0,0,0,0,0,0,0,0,0,0,0,0,0,0,0,0,0,0,0,0,0,0,0,0,0,0,0,0,0,0,0,0,0,0,0,0,0,0,0,0,0,0,0,0,0,0,0,0,0,0,0,0,0,0.4321,0.4322,0,0.439,0.4391,0.4391,0.4424,0.4424,0.4424,0.4424,0.45,0.4502,0.4504,0,0,0,0,0,0,0,0,0,0,0,0,0,0.4223,0.4225,0.4321,0.4322,0.4323,0.439,0.4391,0.4392,0.4424,0.4424,0.4424,0.4424,0.4499,0.4502,0.4504,0,0,0,0,0,0,0,0,0,0,0,0,0,0.4276,0.4225,0.4321,0.4347,0.435,0.4389,0.4391,0.4392,0.4424,0.4424,0.4424,0.4424,0.4499,0.4502,0.4505,0.4525,0,0,0.4514,0.4515,0,0,0,0,0,0,0,0,0.4273,0.428,0.4342,0.4345,0.4349,0.4398,0.4384,0.4437,0.4424,0.4396,0.4424,0.4424,0.4467,0.4472,0.4486,0.4529,0.4532,0.4514,0.4516,0.4518,0.4518,0,0,0,0,0,0,0,0.427,0.4277,0.4348,0.4343,0.4347,0.4357,0.4364,0.4394,0.4431,0.4399,0.4401,0.4409,0.4468,0.4482,0.4488,0.4533,0.4514,0.4517,0.4519,0.452,0.4598,0.4598,0,0,0,0,0,0,0.4261,0.4274,0.4346,0.435,0.431,0.4359,0.4367,0.4382,0.4431,0.4438,0.4408,0.441,0.4477,0.4484,0.449,0.4518,0.4518,0.452,0.4522,0.4598,0.4598,0.4598,0,0,0,0,0,0,0.4259,0.4267,0.4343,0.4313,0.4323,0.436,0.4377,0.4384,0.4398,0.4438,0.4446,0.4416,0.4477,0.4486,0.4516,0.4521,0.4522,0.4525,0.4597,0.4598,0.4598,0.4573,0,0,0,0,0,0,0.4256,0.4266,0.4273,0.4313,0.4325,0.4366,0.4378,0.4385,0.4402,0.4405,0.4447,0.4454,0.4478,0.4511,0.4519,0.4525,0.4527,0.4597,0.4597,0.4598,0.4574,0.4572,0.4571,0,0,0,0,0,0.4252,0.4264,0.4273,0.4281,0.4334,0.4366,0.4373,0.4399,0.4403,0.4411,0.4437,0.4453,0.4519,0.4514,0.4523,0.453,0.4597,0.4597,0.4598,0.4574,0.4573,0.4571,0,0,0,0,0,0,0.4225,0.427,0.428,0.4305,0.4331,0.4372,0.4382,0.4397,0.4424,0.4426,0.4458,0.4468,0.4495,0.4516,0.4509,0.4553,0.456,0.4562,0.4538,0.4537,0.4536,0.4531,0.453,0,0,0,0,0,0.4222,0.4243,0.4281,0.43,0.4312,0.4345,0.436,0.4378,0.4407,0.4419,0.4447,0.4477,0.4505,0.4522,0.455,0.4577,0.4587,0.4587,0.4585,0.4584,0.4586,0.4603,0.4603,0.46,0.46,0.46,0,0,0.4216,0.4243,0.4254,0.4295,0.4318,0.434,0.4354,0.4378,0.4395,0.4423,0.4453,0.4475,0.451,0.4539,0.4553,0.4557,0.4589,0.4585,0.4584,0.4586,0.4603,0.4604,0.4604,0.46,0.46,0.46,0,0,0.4217,0.4238,0.4256,0.4278,0.4312,0.4333,0.4338,0.4376,0.4391,0.4421,0.4443,0.4465,0.4512,0.4536,0.4555,0.4565,0.4581,0.4574,0.4568,0.4584,0.4584,0.4585,0.4589,0.459,0.4575,0.4575,0.4575,0,0.4205,0.4238,0.4264,0.4286,0.4304,0.4329,0.4348,0.4369,0.441,0.4423,0.4427,0.4486,0.4512,0.4547,0.4549,0.4563,0.457,0.4569,0.4582,0.4583,0.4583,0.4588,0.4589,0.4574,0.4574,0.4574,0.4574,0,0.4223,0.4246,0.4257,0.4294,0.4313,0.4334,0.4364,0.4381,0.4397,0.4419,0.445,0.4482,0.4516,0.4526,0.4543,0.4564,0.4566,0.4575,0.4582,0.4582,0.4587,0.4589,0.4572,0.4573,0.4573,0.4573,0,0,0.4208,0.426,0.4263,0.4281,0.432,0.4339,0.4362,0.4394,0.4408,0.4436,0.4457,0.4496,0.4505,0.4526,0.4546,0.456,0.4567,0.4568,0.4569,0.4567,0.4593,0.4585,0.4587,0.4577,0.4578,0.4578,0.459,0,0.4214,0.4253,0.4277,0.4308,0.433,0.4354,0.4374,0.4401,0.4423,0.4446,0.4471,0.4498,0.4508,0.4521,0.4535,0.4562,0.4572,0.4562,0.4598,0.4599,0.4588,0.4589,0.4581,0.459,0.4592,0.4592,0.4592,0,0.4226,0.4252,0.4284,0.4321,0.4331,0.4348,0.438,0.4401,0.4434,0.4448,0.4472,0.4492,0.4518,0.4523,0.4561,0.4554,0.457,0.4586,0.4587,0.4592,0.4596,0.4594,0.4594,0.4595,0.4596,0.4595,0.4595,0,0.4212,0.4255,0.428,0.4294,0.4338,0.435,0.4369,0.4401,0.4419,0.4447,0.446,0.4492,0.4509,0.4535,0.4564,0.4564,0.4599,0.4606,0.4613,0.4613,0.462,0.4619,0.4623,0.463,0.463,0.463,0.463,0,0.4217,0.4235,0.4274,0.4289,0.4312,0.434,0.4362,0.4384,0.4412,0.4433,0.4457,0.4477,0.4514,0.4539,0.4562,0.459,0.4598,0.4612,0.4618,0.461,0.4608,0.4621,0.4621,0.463,0.463,0.463,0.463,0,0.4205,0.4231,0.426,0.4299,0.4309,0.4324,0.4358,0.4375,0.4397,0.4424,0.4432,0.4469,0.4499,0.453,0.4572,0.4588,0.4616,0.4624,0.4604,0.4608,0.4613,0.4612,0.4626,0.4629,0.4634,0.4634,0.4634,0,0.4205,0.422,0.426,0.4275,0.4293,0.4317,0.4335,0.4365,0.4383,0.4421,0.4434,0.4466,0.4493,0.4541,0.4573,0.4605,0.4614,0.4617,0.4619,0.4611,0.4615,0.4613,0.4616,0.4616,0.4615,0.4615,0.4615,0,0.4204,0.4217,0.4241,0.427,0.4291,0.4316,0.4342,0.4353,0.4388,0.4408,0.4438,0.4459,0.4502,0.4534,0.457,0.4592,0.461,0.4614,0.4618,0.4609,0.4598,0.4604,0.4602,0.4614,0.4614,0.4614,0.4614,0.4614,0.4199,0.4213,0.4243,0.427,0.4292,0.4316,0.4334,0.4358,0.4384,0.4419,0.4436,0.4467,0.45,0.455,0.4572,0.4598,0.4603,0.4608,0.4609,0.461,0.4608,0.4593,0.4605,0.4605,0.4605,0.4605,0.4605,0,0.4199,0.4219,0.4243,0.4278,0.43,0.4313,0.4343,0.436,0.4387,0.4415,0.4441,0.4477,0.4508,0.4542,0.4576,0.4591,0.46,0.4599,0.4598,0.4603,0.4602,0.4595,0.4591,0.4591,0.4591,0.4591,0.4591,0.4591,0.4201,0.4226,0.4242,0.428,0.4301,0.433,0.4346,0.4369,0.4392,0.443,0.4455,0.4477,0.4508,0.4544,0.4575,0.4584,0.4596,0.4592,0.4604,0.4602,0.4603,0.4604,0.4598,0.4594,0.4594,0.4603,0.4603,0.4603]},{"header":{"parameterUnit":"m.s-1","parameterCategory":1,"la1":30.2991,"la2":30.254,"lo1":-89.0895,"lo2":-89.0444,"dy":0.0017,"dx":0.0017,"nx":28,"ny":28,"refTime":"2023-11-17T03:00:00:Z","depth":0,"parameterNumber":3,"parameterNumberName":"V-component_of_WINDS"},"data":[0,0,0,0,0,0,0,0,0,0,0,0,0,0,0,0,0,0,0,0,0,0,0,0,0,0,0,0,0,0,0,0,0,0,0,0,0,0,0,0,0,0,0,0,0,0,0,0,0,0,0,0,0,0,0,0,0,0,-1.2205,-1.2206,0,-1.2315,-1.2316,-1.2318,-1.2329,-1.2328,-1.2327,-1.2326,-1.2439,-1.2443,-1.2447,0,0,0,0,0,0,0,0,0,0,0,0,0,-1.2004,-1.2007,-1.2204,-1.2206,-1.2207,-1.2315,-1.2316,-1.2318,-1.233,-1.2328,-1.2327,-1.2326,-1.2438,-1.2443,-1.2448,0,0,0,0,0,0,0,0,0,0,0,0,0,-1.21,-1.2009,-1.2204,-1.2226,-1.2229,-1.2315,-1.2316,-1.2318,-1.233,-1.2328,-1.2327,-1.2325,-1.2436,-1.2442,-1.2448,-1.252,0,0,-1.2467,-1.247,0,0,0,0,0,0,0,0,-1.2095,-1.2108,-1.2222,-1.2225,-1.2228,-1.2307,-1.2287,-1.2386,-1.233,-1.2292,-1.2326,-1.2324,-1.2397,-1.2406,-1.243,-1.2525,-1.253,-1.2467,-1.2471,-1.2474,-1.2476,0,0,0,0,0,0,0,-1.2088,-1.2103,-1.2248,-1.2223,-1.2227,-1.223,-1.2242,-1.2306,-1.2352,-1.2295,-1.2296,-1.2309,-1.2398,-1.2424,-1.2433,-1.2531,-1.2467,-1.2473,-1.2476,-1.2479,-1.2691,-1.2693,0,0,0,0,0,0,-1.2077,-1.2097,-1.2245,-1.2252,-1.2156,-1.2235,-1.2249,-1.2283,-1.2352,-1.236,-1.231,-1.2309,-1.2415,-1.2426,-1.2437,-1.2527,-1.2474,-1.2479,-1.2483,-1.2689,-1.2691,-1.2693,0,0,0,0,0,0,-1.2073,-1.209,-1.224,-1.2175,-1.2194,-1.2241,-1.2279,-1.2286,-1.2313,-1.2363,-1.2371,-1.2329,-1.2414,-1.2428,-1.2499,-1.2531,-1.2482,-1.2488,-1.2687,-1.269,-1.2692,-1.2705,0,0,0,0,0,0,-1.2067,-1.2089,-1.2116,-1.2175,-1.2198,-1.2301,-1.2281,-1.229,-1.2323,-1.2323,-1.2383,-1.2391,-1.2414,-1.249,-1.2505,-1.2538,-1.2492,-1.2684,-1.2688,-1.2691,-1.2702,-1.2708,-1.2713,0,0,0,0,0,-1.206,-1.2115,-1.2118,-1.2136,-1.2233,-1.2303,-1.2315,-1.2341,-1.2326,-1.2354,-1.2386,-1.2389,-1.2524,-1.2497,-1.2514,-1.255,-1.2682,-1.2687,-1.2691,-1.27,-1.2707,-1.2713,0,0,0,0,0,0,-1.2059,-1.2124,-1.2127,-1.2203,-1.2247,-1.2304,-1.2341,-1.2347,-1.2397,-1.2394,-1.2423,-1.2436,-1.2506,-1.2534,-1.2504,-1.2622,-1.2602,-1.261,-1.2602,-1.2609,-1.2615,-1.2608,-1.2498,0,0,0,0,0,-1.2068,-1.2119,-1.2172,-1.2234,-1.2256,-1.2295,-1.2326,-1.2341,-1.2388,-1.2407,-1.2445,-1.249,-1.2543,-1.2577,-1.2628,-1.2705,-1.2719,-1.2737,-1.2743,-1.2747,-1.2755,-1.2799,-1.2808,-1.2708,-1.2708,-1.2708,0,0,-1.2087,-1.2128,-1.2158,-1.2235,-1.2271,-1.2324,-1.2311,-1.2366,-1.2406,-1.2416,-1.2486,-1.2514,-1.2567,-1.2641,-1.2676,-1.2667,-1.2785,-1.2753,-1.2756,-1.2761,-1.2804,-1.2814,-1.2822,-1.2711,-1.271,-1.271,0,0,-1.2148,-1.2184,-1.224,-1.2276,-1.2331,-1.2356,-1.2369,-1.2426,-1.2445,-1.2516,-1.2524,-1.2571,-1.2661,-1.2698,-1.2729,-1.2804,-1.2809,-1.2819,-1.2849,-1.2892,-1.29,-1.2907,-1.2935,-1.2945,-1.2826,-1.2826,-1.2826,0,-1.2165,-1.2245,-1.2268,-1.2325,-1.2359,-1.2369,-1.2426,-1.246,-1.2529,-1.2552,-1.254,-1.2654,-1.269,-1.2774,-1.2792,-1.2816,-1.2833,-1.2814,-1.2896,-1.2904,-1.2911,-1.2939,-1.2949,-1.2827,-1.2827,-1.2827,-1.2827,0,-1.2263,-1.2318,-1.2357,-1.2423,-1.2461,-1.2517,-1.255,-1.2585,-1.2596,-1.2623,-1.2694,-1.2737,-1.2798,-1.2818,-1.283,-1.2904,-1.2897,-1.289,-1.2871,-1.2921,-1.2948,-1.2958,-1.2829,-1.2828,-1.2828,-1.2828,0,0,-1.2331,-1.2408,-1.2422,-1.2453,-1.2513,-1.2556,-1.2612,-1.2672,-1.2702,-1.2748,-1.2798,-1.2873,-1.2867,-1.2902,-1.2917,-1.2954,-1.3013,-1.2943,-1.2945,-1.2957,-1.3099,-1.3106,-1.3118,-1.3015,-1.3017,-1.3018,-1.3095,0,-1.2401,-1.2503,-1.2526,-1.2613,-1.2665,-1.2675,-1.2724,-1.2766,-1.2792,-1.2839,-1.2867,-1.2921,-1.2908,-1.293,-1.2966,-1.2998,-1.3042,-1.2992,-1.3062,-1.3065,-1.3052,-1.3131,-1.3139,-1.3209,-1.3106,-1.3107,-1.3109,0,-1.2498,-1.2547,-1.264,-1.2693,-1.2716,-1.276,-1.2817,-1.2861,-1.2909,-1.2925,-1.2964,-1.2975,-1.3034,-1.3009,-1.3092,-1.3058,-1.3087,-1.3107,-1.311,-1.312,-1.3092,-1.3146,-1.3232,-1.3244,-1.3125,-1.3124,-1.3122,0,-1.2541,-1.2629,-1.2697,-1.2722,-1.2786,-1.2817,-1.2845,-1.2891,-1.2925,-1.2974,-1.2996,-1.3051,-1.3081,-1.3123,-1.3149,-1.3128,-1.3231,-1.3207,-1.3247,-1.3246,-1.3271,-1.3269,-1.3366,-1.3285,-1.3284,-1.3284,-1.3284,0,-1.2619,-1.2676,-1.2717,-1.2759,-1.2823,-1.2847,-1.2911,-1.2938,-1.2979,-1.3027,-1.3037,-1.3081,-1.3111,-1.316,-1.318,-1.3247,-1.326,-1.3275,-1.328,-1.3276,-1.3274,-1.3298,-1.3295,-1.3287,-1.3286,-1.3286,-1.3285,0,-1.2679,-1.2708,-1.2783,-1.2837,-1.2851,-1.2897,-1.2943,-1.2984,-1.3008,-1.3069,-1.3084,-1.3123,-1.3181,-1.321,-1.3281,-1.3295,-1.3371,-1.3371,-1.3355,-1.3358,-1.3397,-1.3394,-1.3514,-1.3532,-1.3436,-1.3437,-1.3438,0,-1.2729,-1.2773,-1.2831,-1.2864,-1.2893,-1.2945,-1.298,-1.3005,-1.3041,-1.3098,-1.3133,-1.319,-1.3239,-1.333,-1.3365,-1.342,-1.3424,-1.3462,-1.3432,-1.3427,-1.3428,-1.3426,-1.3431,-1.3469,-1.3469,-1.347,-1.3471,0,-1.2815,-1.2827,-1.2877,-1.2932,-1.2973,-1.3017,-1.3061,-1.3087,-1.3119,-1.3159,-1.3218,-1.3255,-1.3328,-1.3386,-1.3444,-1.3472,-1.3478,-1.3479,-1.3492,-1.349,-1.3479,-1.3488,-1.3373,-1.3477,-1.3477,-1.3476,-1.3476,-1.3476,-1.2873,-1.2914,-1.2961,-1.3016,-1.3051,-1.3092,-1.3134,-1.3163,-1.3213,-1.3275,-1.3286,-1.3349,-1.3395,-1.3473,-1.3503,-1.3552,-1.3544,-1.3562,-1.3567,-1.3572,-1.3575,-1.3469,-1.3562,-1.3562,-1.3562,-1.3562,-1.3562,0,-1.2962,-1.2992,-1.3043,-1.3104,-1.3147,-1.3147,-1.3195,-1.3232,-1.3287,-1.333,-1.3377,-1.3445,-1.3501,-1.3539,-1.3596,-1.3629,-1.3632,-1.3643,-1.3642,-1.3649,-1.3578,-1.3562,-1.3639,-1.3639,-1.3639,-1.3639,-1.3639,-1.3639,-1.3014,-1.3082,-1.3099,-1.3185,-1.3215,-1.3278,-1.3305,-1.3343,-1.3377,-1.3453,-1.35,-1.3524,-1.3565,-1.3625,-1.3676,-1.3686,-1.3708,-1.3719,-1.3729,-1.3662,-1.3654,-1.3646,-1.3632,-1.3722,-1.3722,-1.3796,-1.3797,-1.3798]}]]